Showing default

ICEYE-X56, 64574

Orbit data source: Space-Track

ICEYE-X56, 64574 is a payload satellite owned by ICEYE (FI) in SSO that was launched on Mon, 23 Jun 2025 UTC via an FALCON 9 launch vehicle from the Air Force Western Test Range (AFWTR). Payload-class satellites include a variety of spacecraft equipped with specific instruments for various scientific and technological missions. These include communications satellites like Starlink; space stations such as the ISS; scientific satellites like the Hubble; Earth observation satellites from companies like Planet Labs, Umbra, and HawkEye 360; GPS; miniature CubeSats for education and research; and military/defense satellites.

Loading next visibility...
Identifier
64574, 2025-135AY
Orbit
SSO
Country
Flag of FIFI / FIN
Related business
Manufacturer
ICEYE
Mission
Operational Commercial Radar Imaging
Bus & Motor
ICEYE, Unknown motor
Mass
80 kg wet, 80 kg dry
Launch date (UTC)
2025-06-23 (8 months ago)
Launch vehicle
FALCON 9
Launch site
Air Force Western Test Range (AFWTR)
Object type
Payload
Rocket body
Debris
Shape & HBR
Box + 1 Pan, 2.4 m
Radar Cross Section
0.776 m², Large (>1 m²)

Expand to show TLE details & history
Last TLE update: 6 hours ago

TLE from 6 hours ago
0 ICEYE-X56
1 64574U 25135AY  26062.56761001  .00005264  00000-0  48836-3 0  9993
2 64574  97.7613 178.4922 0001330 353.1032   7.0170 14.94853645 38148
Epoch: 2026-03-03T13:37Z
TLE epoch observation values (Epoch: 2026-03-03T13:37:21.504Z)
Latitude
-0.00004°
Longitude
172.80779°
Altitude
584.954 km
Speed
7.568 km/s
True Right ascension
11h 53m 58s
True Declination
0° 00' 00"
Sunlit
Object was in full shadow at epoch
Visualization orbit readout
Latitude
Unknown
Longitude
Unknown
Altitude
Unknown
Speed
Unknown
Apparent Right ascension
Unknown
Apparent Declination
Unknown
Sunlit
N/A
Visualization observer readout
Local Sidereal Time
23:37:49
Azimuth
Unknown
Elevation
Unknown
Doppler factor
Unknown
Orbital elements
Apogee altitude
580.767 km
Perigee altitude
578.916 km
Semi-major axis
6,957.979 km
Eccentricity
0.00013
Inclination
97.7613°
RAAN
178.4922°
Arg. of periapsis
353.1032°
True anomaly
7.01886°
Mean anomaly
7.017°
Eccentric anomaly
7.01793°
Mean motion
3.73954 °/min
Orbital period
96.27 mins
BSTAR
0.00048836
Loading maneuver chart data...
Computing Atmospheric mass density...
Loading historical data...
Loading historical data...
Loading historical data...
Loading historical data...
Loading historical data...
Loading historical data...
Loading historical data...

Documentation

Showing up to 5 results
|